Погода в Игуэе

Доминиканская Республика     18°36′50″N   68°42′51″W
темп.,
°C
ветер,
м/с
пор.,
м/с
влажн.,
%
обл.,
%
осадки,
мм/ч
давл.,
гПа
погр.,
м
21 января, чт
чт2123:00+21ссв35930 0.0 1016106
02:00+21св36950 0.0 1016152
05:00+21всв36951 0.0 1014146
08:00+22св25942 0.1 1016154
11:00+27всв34693 0.2 10171058
14:00+28св556410 0.4 10151177
17:00+25св567421 0.0 1014765
20:00+21св348951 0.0 101597
22 января, пт
пт2223:00+20св348919 0.0 101698
02:00+20св349216 0.0 101596
05:00+20св33931 0.0 101567
08:00+21св35916 0.0 1016158
11:00+26всв46726 0.0 10171012
14:00+27всв556844 0.3 10161151
17:00+25всв567763 0.1 1014781
20:00+21всв339337 0.1 101673
23 января, сб
сб2323:00+21св339595 0.0 101689
02:00+21св359583 0.1 1016102
05:00+21св359569 0.1 1016103
08:00+22всв389382 0.1 1018241
11:00+26всв567093 0.0 1018914
14:00+28всв556451 0.0 10161218
17:00+26всв457331 0.0 1015901
20:00+21св348922 0.0 101678
24 января, вс
вс2423:00+20св36910 0.0 1017111
02:00+20св36950 0.0 1016125
05:00+21св37962 0.0 1015184
08:00+21св38925 0.0 1017253
11:00+26св677422 0.1 1018919
14:00+26св677135 0.4 10161026
17:00+24св577956 0.1 1014794
20:00+21св499232 0.2 1016273
25 января, пн
пн2523:00+21св49930 0.0 1016274
02:00+21св49943 0.0 1015244
05:00+20св38942 0.0 1015189
08:00+21св39921 0.1 1017332
11:00+26всв78732 0.3 10181055
14:00+26св677011 0.5 10161114
17:00+25св677615 0.1 1015894
20:00+20св4108921 0.1 1016266